Year,Month,Day,Hour,Minute,Value (Times are PST for temperature in C)
2014,03,31,00,00,6.80
2014,03,31,00,01,6.80
2014,03,31,00,02,6.80
2014,03,31,00,03,6.80
2014,03,31,00,04,6.80
2014,03,31,00,05,6.80
2014,03,31,00,06,6.80
2014,03,31,00,07,6.80
2014,03,31,00,08,6.80
2014,03,31,00,09,6.70
2014,03,31,00,10,6.70
2014,03,31,00,11,6.70
2014,03,31,00,12,6.70
2014,03,31,00,13,6.70
2014,03,31,00,14,6.70
2014,03,31,00,15,6.70
2014,03,31,00,16,6.70
2014,03,31,00,17,6.70
2014,03,31,00,18,6.70
2014,03,31,00,19,6.70
2014,03,31,00,20,6.70
2014,03,31,00,21,6.60
2014,03,31,00,22,6.60
2014,03,31,00,23,6.60
2014,03,31,00,24,6.60
2014,03,31,00,25,6.60
2014,03,31,00,26,6.60
2014,03,31,00,27,6.60
2014,03,31,00,28,6.50
2014,03,31,00,29,6.50
2014,03,31,00,30,6.50
2014,03,31,00,31,6.50
2014,03,31,00,32,6.50
2014,03,31,00,33,6.50
2014,03,31,00,34,6.40
2014,03,31,00,35,6.40
2014,03,31,00,36,6.40
2014,03,31,00,37,6.30
2014,03,31,00,38,6.30
2014,03,31,00,39,6.30
2014,03,31,00,40,6.30
2014,03,31,00,41,6.30
2014,03,31,00,42,6.30
2014,03,31,00,43,6.30
2014,03,31,00,44,6.30
2014,03,31,00,45,6.30
2014,03,31,00,46,6.30
2014,03,31,00,47,6.30
2014,03,31,00,48,6.30
2014,03,31,00,49,6.30
2014,03,31,00,50,6.30
2014,03,31,00,51,6.30
2014,03,31,00,52,6.30
2014,03,31,00,53,6.20
2014,03,31,00,54,6.20
2014,03,31,00,55,6.20
2014,03,31,00,56,6.20
2014,03,31,00,57,6.20
2014,03,31,00,58,6.20
2014,03,31,00,59,6.20
2014,03,31,01,00,6.20
2014,03,31,01,01,6.20
2014,03,31,01,02,6.20
2014,03,31,01,03,6.20
2014,03,31,01,04,6.20
2014,03,31,01,05,6.20
2014,03,31,01,06,6.20
2014,03,31,01,07,6.20
2014,03,31,01,08,6.20
2014,03,31,01,09,6.20
2014,03,31,01,10,6.20
2014,03,31,01,11,6.20
2014,03,31,01,12,6.20
2014,03,31,01,13,6.20
2014,03,31,01,14,6.20
2014,03,31,01,15,6.20
2014,03,31,01,16,6.20
2014,03,31,01,17,6.20
2014,03,31,01,18,6.20
2014,03,31,01,19,6.20
2014,03,31,01,20,6.20
2014,03,31,01,21,6.10
2014,03,31,01,22,6.10
2014,03,31,01,23,6.10
2014,03,31,01,24,6.10
2014,03,31,01,25,6.10
2014,03,31,01,26,6.10
2014,03,31,01,27,6.10
2014,03,31,01,28,6.10
2014,03,31,01,29,6.10
2014,03,31,01,30,6.10
2014,03,31,01,31,6.10
2014,03,31,01,32,6.10
2014,03,31,01,33,6.20
2014,03,31,01,34,6.20
2014,03,31,01,35,6.20
2014,03,31,01,36,6.20
2014,03,31,01,37,6.20
2014,03,31,01,38,6.20
2014,03,31,01,39,6.20
2014,03,31,01,40,6.20
2014,03,31,01,41,6.20
2014,03,31,01,42,6.20
2014,03,31,01,43,6.20
2014,03,31,01,44,6.20
2014,03,31,01,45,6.20
2014,03,31,01,46,6.20
2014,03,31,01,47,6.20
2014,03,31,01,48,6.30
2014,03,31,01,49,6.30
2014,03,31,01,50,6.30
2014,03,31,01,51,6.30
2014,03,31,01,52,6.30
2014,03,31,01,53,6.40
2014,03,31,01,54,6.40
2014,03,31,01,55,6.40
2014,03,31,01,56,6.40
2014,03,31,01,57,6.40
2014,03,31,01,58,6.40
2014,03,31,01,59,6.40
2014,03,31,02,00,6.40
2014,03,31,02,01,6.40
2014,03,31,02,02,6.40
2014,03,31,02,03,6.30
2014,03,31,02,04,6.30
2014,03,31,02,05,6.30
2014,03,31,02,06,6.30
2014,03,31,02,07,6.30
2014,03,31,02,08,6.30
2014,03,31,02,09,6.30
2014,03,31,02,10,6.30
2014,03,31,02,11,6.30
2014,03,31,02,12,6.30
2014,03,31,02,13,6.30
2014,03,31,02,14,6.30
2014,03,31,02,15,6.30
2014,03,31,02,16,6.30
2014,03,31,02,17,6.30
2014,03,31,02,18,6.30
2014,03,31,02,19,6.30
2014,03,31,02,20,6.30
2014,03,31,02,21,6.30
2014,03,31,02,22,6.30
2014,03,31,02,23,6.30
2014,03,31,02,24,6.30
2014,03,31,02,25,6.30
2014,03,31,02,26,6.30
2014,03,31,02,27,6.30
2014,03,31,02,28,6.30
2014,03,31,02,29,6.20
2014,03,31,02,30,6.20
2014,03,31,02,31,6.20
2014,03,31,02,32,6.20
2014,03,31,02,33,6.20
2014,03,31,02,34,6.20
2014,03,31,02,35,6.20
2014,03,31,02,36,6.20
2014,03,31,02,37,6.20
2014,03,31,02,38,6.20
2014,03,31,02,39,6.20
2014,03,31,02,40,6.20
2014,03,31,02,41,6.20
2014,03,31,02,42,6.20
2014,03,31,02,43,6.10
2014,03,31,02,44,6.10
2014,03,31,02,45,6.10
2014,03,31,02,46,6.10
2014,03,31,02,47,6.10
2014,03,31,02,48,6.10
2014,03,31,02,49,6.10
2014,03,31,02,50,6.10
2014,03,31,02,51,6.10
2014,03,31,02,52,6.10
2014,03,31,02,53,6.10
2014,03,31,02,54,6.00
2014,03,31,02,55,6.00
2014,03,31,02,56,6.00
2014,03,31,02,57,6.00
2014,03,31,02,58,6.00
2014,03,31,02,59,5.90
2014,03,31,03,00,5.90
2014,03,31,03,01,5.90
2014,03,31,03,02,5.90
2014,03,31,03,03,5.90
2014,03,31,03,04,5.90
2014,03,31,03,05,5.80
2014,03,31,03,06,5.80
2014,03,31,03,07,5.80
2014,03,31,03,08,5.80
2014,03,31,03,09,5.80
2014,03,31,03,10,5.80
2014,03,31,03,11,5.80
2014,03,31,03,12,5.70
2014,03,31,03,13,5.70
2014,03,31,03,14,5.70
2014,03,31,03,15,5.70
2014,03,31,03,16,5.70
2014,03,31,03,17,5.70
2014,03,31,03,18,5.60
2014,03,31,03,19,5.60
2014,03,31,03,20,5.60
2014,03,31,03,21,5.60
2014,03,31,03,22,5.60
2014,03,31,03,23,5.60
2014,03,31,03,24,5.60
2014,03,31,03,25,5.50
2014,03,31,03,26,5.50
2014,03,31,03,27,5.50
2014,03,31,03,28,5.50
2014,03,31,03,29,5.50
2014,03,31,03,30,5.40
2014,03,31,03,31,5.40
2014,03,31,03,32,5.40
2014,03,31,03,33,5.40
2014,03,31,03,34,5.40
2014,03,31,03,35,5.40
2014,03,31,03,36,5.40
2014,03,31,03,37,5.40
2014,03,31,03,38,5.40
2014,03,31,03,39,5.40
2014,03,31,03,40,5.40
2014,03,31,03,41,5.40
2014,03,31,03,42,5.40
2014,03,31,03,43,5.40
2014,03,31,03,44,5.40
2014,03,31,03,45,5.40
2014,03,31,03,46,5.40
2014,03,31,03,47,5.30
2014,03,31,03,48,5.30
2014,03,31,03,49,5.30
2014,03,31,03,50,5.40
2014,03,31,03,51,5.40
2014,03,31,03,52,5.40
2014,03,31,03,53,5.40
2014,03,31,03,54,5.40
2014,03,31,03,55,5.40
2014,03,31,03,56,5.30
2014,03,31,03,57,5.30
2014,03,31,03,58,5.30
2014,03,31,03,59,5.30
2014,03,31,04,00,5.30
2014,03,31,04,01,5.30
2014,03,31,04,02,5.40
2014,03,31,04,03,5.30
2014,03,31,04,04,5.40
2014,03,31,04,05,5.40
2014,03,31,04,06,5.40
2014,03,31,04,07,5.40
2014,03,31,04,08,5.40
2014,03,31,04,09,5.40
2014,03,31,04,10,5.40
2014,03,31,04,11,5.40
2014,03,31,04,12,5.50
2014,03,31,04,13,5.50
2014,03,31,04,14,5.50
2014,03,31,04,15,5.50
2014,03,31,04,16,5.50
2014,03,31,04,17,5.50
2014,03,31,04,18,5.50
2014,03,31,04,19,5.50
2014,03,31,04,20,5.50
2014,03,31,04,21,5.50
2014,03,31,04,22,5.50
2014,03,31,04,23,5.50
2014,03,31,04,24,5.50
2014,03,31,04,25,5.50
2014,03,31,04,26,5.50
2014,03,31,04,27,5.50
2014,03,31,04,28,5.50
2014,03,31,04,29,5.50
2014,03,31,04,30,5.50
2014,03,31,04,31,5.60
2014,03,31,04,32,5.60
2014,03,31,04,33,5.60
2014,03,31,04,34,5.60
2014,03,31,04,35,5.60
2014,03,31,04,36,5.60
2014,03,31,04,37,5.60
2014,03,31,04,38,5.60
2014,03,31,04,39,5.60
2014,03,31,04,40,5.60
2014,03,31,04,41,5.70
2014,03,31,04,42,5.70
2014,03,31,04,43,5.70
2014,03,31,04,44,5.70
2014,03,31,04,45,5.70
2014,03,31,04,46,5.70
2014,03,31,04,47,5.70
2014,03,31,04,48,5.70
2014,03,31,04,49,5.80
2014,03,31,04,50,5.80
2014,03,31,04,51,5.80
2014,03,31,04,52,5.80
2014,03,31,04,53,5.80
2014,03,31,04,54,5.80
2014,03,31,04,55,5.80
2014,03,31,04,56,5.80
2014,03,31,04,57,5.80
2014,03,31,04,58,5.90
2014,03,31,04,59,5.90
2014,03,31,05,00,5.90
2014,03,31,05,01,5.90
2014,03,31,05,02,5.90
2014,03,31,05,03,6.00
2014,03,31,05,04,6.00
2014,03,31,05,05,6.00
2014,03,31,05,06,6.10
2014,03,31,05,07,6.10
2014,03,31,05,08,6.10
2014,03,31,05,09,6.20
2014,03,31,05,10,6.20
2014,03,31,05,11,6.20
2014,03,31,05,12,6.20
2014,03,31,05,13,6.20
2014,03,31,05,14,6.20
2014,03,31,05,15,6.20
2014,03,31,05,16,6.20
2014,03,31,05,17,6.20
2014,03,31,05,18,6.20
2014,03,31,05,19,6.20
2014,03,31,05,20,6.20
2014,03,31,05,21,6.20
2014,03,31,05,22,6.20
2014,03,31,05,23,6.20
2014,03,31,05,24,6.20
2014,03,31,05,25,6.20
2014,03,31,05,26,6.20
2014,03,31,05,27,6.20
2014,03,31,05,28,6.20
2014,03,31,05,29,6.20
2014,03,31,05,30,6.20
2014,03,31,05,31,6.20
2014,03,31,05,32,6.20
2014,03,31,05,33,6.20
2014,03,31,05,34,6.20
2014,03,31,05,35,6.20
2014,03,31,05,36,6.20
2014,03,31,05,37,6.20
2014,03,31,05,38,6.20
2014,03,31,05,39,6.20
2014,03,31,05,40,6.20
2014,03,31,05,41,6.20
2014,03,31,05,42,6.20
2014,03,31,05,43,6.20
2014,03,31,05,44,6.20
2014,03,31,05,45,6.20
2014,03,31,05,46,6.20
2014,03,31,05,47,6.10
2014,03,31,05,48,6.10
2014,03,31,05,49,6.10
2014,03,31,05,50,6.10
2014,03,31,05,51,6.10
2014,03,31,05,52,6.00
2014,03,31,05,53,6.00
2014,03,31,05,54,5.90
2014,03,31,05,55,5.90
2014,03,31,05,56,5.90
2014,03,31,05,57,5.90
2014,03,31,05,58,5.80
2014,03,31,05,59,5.80
2014,03,31,06,00,5.80
2014,03,31,06,01,5.80
2014,03,31,06,02,5.70
2014,03,31,06,03,5.70
2014,03,31,06,04,5.70
2014,03,31,06,05,5.70
2014,03,31,06,06,5.60
2014,03,31,06,07,5.60
2014,03,31,06,08,5.60
2014,03,31,06,09,5.60
2014,03,31,06,10,5.50
2014,03,31,06,11,5.50
2014,03,31,06,12,5.50
2014,03,31,06,13,5.40
2014,03,31,06,14,5.40
2014,03,31,06,15,5.40
2014,03,31,06,16,5.40
2014,03,31,06,17,5.30
2014,03,31,06,18,5.30
2014,03,31,06,19,5.30
2014,03,31,06,20,5.30
2014,03,31,06,21,5.20
2014,03,31,06,22,5.20
2014,03,31,06,23,5.20
2014,03,31,06,24,5.20
2014,03,31,06,25,5.10
2014,03,31,06,26,5.10
2014,03,31,06,27,5.10
2014,03,31,06,28,5.10
2014,03,31,06,29,5.10
2014,03,31,06,30,5.10
2014,03,31,06,31,5.00
2014,03,31,06,32,5.00
2014,03,31,06,33,5.00
2014,03,31,06,34,5.00
2014,03,31,06,35,4.90
2014,03,31,06,36,4.90
2014,03,31,06,37,4.90
2014,03,31,06,38,4.90
2014,03,31,06,39,4.90
2014,03,31,06,40,4.80
2014,03,31,06,41,4.80
2014,03,31,06,42,4.80
2014,03,31,06,43,4.80
2014,03,31,06,44,4.70
2014,03,31,06,45,4.70
2014,03,31,06,46,4.70
2014,03,31,06,47,4.70
2014,03,31,06,48,4.70
2014,03,31,06,49,4.60
2014,03,31,06,50,4.60
2014,03,31,06,51,4.60
2014,03,31,06,52,4.60
2014,03,31,06,53,4.60
2014,03,31,06,54,4.60
2014,03,31,06,55,4.50
2014,03,31,06,56,4.50
2014,03,31,06,57,4.50
2014,03,31,06,58,4.50
2014,03,31,06,59,4.50
2014,03,31,07,00,4.50
2014,03,31,07,01,4.50
2014,03,31,07,02,4.50
2014,03,31,07,03,4.50
2014,03,31,07,04,4.50
2014,03,31,07,05,4.60
2014,03,31,07,06,4.60
2014,03,31,07,07,4.60
2014,03,31,07,08,4.60
2014,03,31,07,09,4.60
2014,03,31,07,10,4.60
2014,03,31,07,11,4.60
2014,03,31,07,12,4.60
2014,03,31,07,13,4.60
2014,03,31,07,14,4.60
2014,03,31,07,15,4.60
2014,03,31,07,16,4.60
2014,03,31,07,17,4.60
2014,03,31,07,18,4.60
2014,03,31,07,19,4.60
2014,03,31,07,20,4.60
2014,03,31,07,21,4.60
2014,03,31,07,22,4.60
2014,03,31,07,23,4.70
2014,03,31,07,24,4.70
2014,03,31,07,25,4.70
2014,03,31,07,26,4.70
2014,03,31,07,27,4.70
2014,03,31,07,28,4.70
2014,03,31,07,29,4.70
2014,03,31,07,30,4.70
2014,03,31,07,31,4.70
2014,03,31,07,32,4.70
2014,03,31,07,33,4.70
2014,03,31,07,34,4.70
2014,03,31,07,35,4.80
2014,03,31,07,36,4.80
2014,03,31,07,37,4.80
2014,03,31,07,38,4.80
2014,03,31,07,39,4.80
2014,03,31,07,40,4.80
2014,03,31,07,41,4.80
2014,03,31,07,42,4.80
2014,03,31,07,43,4.90
2014,03,31,07,44,4.90
2014,03,31,07,45,4.90
2014,03,31,07,46,4.90
2014,03,31,07,47,4.90
2014,03,31,07,48,5.00
2014,03,31,07,49,5.00
2014,03,31,07,50,5.10
2014,03,31,07,51,5.10
2014,03,31,07,52,5.10
2014,03,31,07,53,5.20
2014,03,31,07,54,5.20
2014,03,31,07,55,5.30
2014,03,31,07,56,5.30
2014,03,31,07,57,5.30
2014,03,31,07,58,5.40
2014,03,31,07,59,5.40
2014,03,31,08,00,5.50
2014,03,31,08,01,5.50
2014,03,31,08,02,5.60
2014,03,31,08,03,5.60
2014,03,31,08,04,5.60
2014,03,31,08,05,5.70
2014,03,31,08,06,5.70
2014,03,31,08,07,5.70
2014,03,31,08,08,5.80
2014,03,31,08,09,5.80
2014,03,31,08,10,5.80
2014,03,31,08,11,5.80
2014,03,31,08,12,5.90
2014,03,31,08,13,5.90
2014,03,31,08,14,5.90
2014,03,31,08,15,5.90
2014,03,31,08,16,5.90
2014,03,31,08,17,5.90
2014,03,31,08,18,6.00
2014,03,31,08,19,6.00
2014,03,31,08,20,6.00
2014,03,31,08,21,6.00
2014,03,31,08,22,6.00
2014,03,31,08,23,6.00
2014,03,31,08,24,6.10
2014,03,31,08,25,6.10
2014,03,31,08,26,6.10
2014,03,31,08,27,6.10
2014,03,31,08,28,6.10
2014,03,31,08,29,6.10
2014,03,31,08,30,6.10
2014,03,31,08,31,6.20
2014,03,31,08,32,6.20
2014,03,31,08,33,6.20
2014,03,31,08,34,6.20
2014,03,31,08,35,6.20
2014,03,31,08,36,6.20
2014,03,31,08,37,6.20
2014,03,31,08,38,6.20
2014,03,31,08,39,6.20
2014,03,31,08,40,6.30
2014,03,31,08,41,6.30
2014,03,31,08,42,6.30
2014,03,31,08,43,6.30
2014,03,31,08,44,6.40
2014,03,31,08,45,6.40
2014,03,31,08,46,6.50
2014,03,31,08,47,6.50
2014,03,31,08,48,6.50
2014,03,31,08,49,6.60
2014,03,31,08,50,6.60
2014,03,31,08,51,6.60
2014,03,31,08,52,6.60
2014,03,31,08,53,6.70
2014,03,31,08,54,6.70
2014,03,31,08,55,6.70
2014,03,31,08,56,6.80
2014,03,31,08,57,6.80
2014,03,31,08,58,6.80
2014,03,31,08,59,6.90
2014,03,31,09,00,6.90
2014,03,31,09,01,6.90
2014,03,31,09,02,7.00
2014,03,31,09,03,7.00
2014,03,31,09,04,7.10
2014,03,31,09,05,7.10
2014,03,31,09,06,7.10
2014,03,31,09,07,7.20
2014,03,31,09,08,7.20
2014,03,31,09,09,7.30
2014,03,31,09,10,7.30
2014,03,31,09,11,7.40
2014,03,31,09,12,7.40
2014,03,31,09,13,7.40
2014,03,31,09,14,7.40
2014,03,31,09,15,7.40
2014,03,31,09,16,7.50
2014,03,31,09,17,7.50
2014,03,31,09,18,7.50
2014,03,31,09,19,7.50
2014,03,31,09,20,7.50
2014,03,31,09,21,7.50
2014,03,31,09,22,7.50
2014,03,31,09,23,7.50
2014,03,31,09,24,7.60
2014,03,31,09,25,7.60
2014,03,31,09,26,7.60
2014,03,31,09,27,7.60
2014,03,31,09,28,7.60
2014,03,31,09,29,7.70
2014,03,31,09,30,7.70
2014,03,31,09,31,7.70
2014,03,31,09,32,7.70
2014,03,31,09,33,7.80
2014,03,31,09,34,7.80
2014,03,31,09,35,7.80
2014,03,31,09,36,7.80
2014,03,31,09,37,7.80
2014,03,31,09,38,7.80
2014,03,31,09,39,7.80
2014,03,31,09,40,7.80
2014,03,31,09,41,7.80
2014,03,31,09,42,7.80
2014,03,31,09,43,7.80
2014,03,31,09,44,7.80
2014,03,31,09,45,7.80
2014,03,31,09,46,7.80
2014,03,31,09,47,7.80
2014,03,31,09,48,7.90
2014,03,31,09,49,7.90
2014,03,31,09,50,8.00
2014,03,31,09,51,8.00
2014,03,31,09,52,8.10
2014,03,31,09,53,8.10
2014,03,31,09,54,8.20
2014,03,31,09,55,8.30
2014,03,31,09,56,8.30
2014,03,31,09,57,8.30
2014,03,31,09,58,8.30
2014,03,31,09,59,8.30
2014,03,31,10,00,8.30
2014,03,31,10,01,8.30
2014,03,31,10,02,8.30
2014,03,31,10,03,8.30
2014,03,31,10,04,8.20
2014,03,31,10,05,8.20
2014,03,31,10,06,8.20
2014,03,31,10,07,8.20
2014,03,31,10,08,8.20
2014,03,31,10,09,8.20
2014,03,31,10,10,8.20
2014,03,31,10,11,8.20
2014,03,31,10,12,8.20
2014,03,31,10,13,8.20
2014,03,31,10,14,8.20
2014,03,31,10,15,8.20
2014,03,31,10,16,8.10
2014,03,31,10,17,8.10
2014,03,31,10,18,8.10
2014,03,31,10,19,8.10
2014,03,31,10,20,8.10
2014,03,31,10,21,8.00
2014,03,31,10,22,8.00
2014,03,31,10,23,8.00
2014,03,31,10,24,8.00
2014,03,31,10,25,8.00
2014,03,31,10,26,8.10
2014,03,31,10,27,8.10
2014,03,31,10,28,8.10
2014,03,31,10,29,8.10
2014,03,31,10,30,8.10
2014,03,31,10,31,8.10
2014,03,31,10,32,8.20
2014,03,31,10,33,8.20
2014,03,31,10,34,8.20
2014,03,31,10,35,8.20
2014,03,31,10,36,8.30
2014,03,31,10,37,8.30
2014,03,31,10,38,8.30
2014,03,31,10,39,8.30
2014,03,31,10,40,8.30
2014,03,31,10,41,8.30
2014,03,31,10,42,8.30
2014,03,31,10,43,8.20
2014,03,31,10,44,8.20
2014,03,31,10,45,8.20
2014,03,31,10,46,8.20
2014,03,31,10,47,8.30
2014,03,31,10,48,8.30
2014,03,31,10,49,8.20
2014,03,31,10,50,8.20
2014,03,31,10,51,8.30
2014,03,31,10,52,8.30
2014,03,31,10,53,8.30
2014,03,31,10,54,8.30
2014,03,31,10,55,8.30
2014,03,31,10,56,8.30
2014,03,31,10,57,8.30
2014,03,31,10,58,8.30
2014,03,31,10,59,8.30
2014,03,31,11,00,8.30
2014,03,31,11,01,8.30
2014,03,31,11,02,8.30
2014,03,31,11,03,8.30
2014,03,31,11,04,8.30
2014,03,31,11,05,8.30
2014,03,31,11,06,8.30
2014,03,31,11,07,8.30
2014,03,31,11,08,8.40
2014,03,31,11,09,8.40
2014,03,31,11,10,8.40
2014,03,31,11,11,8.50
2014,03,31,11,12,8.50
2014,03,31,11,13,8.50
2014,03,31,11,14,8.50
2014,03,31,11,15,8.50
2014,03,31,11,16,8.40
2014,03,31,11,17,8.40
2014,03,31,11,18,8.40
2014,03,31,11,19,8.40
2014,03,31,11,20,8.30
2014,03,31,11,21,8.30
2014,03,31,11,22,8.30
2014,03,31,11,23,8.30
2014,03,31,11,24,8.20
2014,03,31,11,25,8.20
2014,03,31,11,26,8.20
2014,03,31,11,27,8.20
2014,03,31,11,28,8.20
2014,03,31,11,29,8.20
2014,03,31,11,30,8.20
2014,03,31,11,31,8.30
2014,03,31,11,32,8.30
2014,03,31,11,33,8.30
2014,03,31,11,34,8.30
2014,03,31,11,35,8.30
2014,03,31,11,36,8.30
2014,03,31,11,37,8.30
2014,03,31,11,38,8.40
2014,03,31,11,39,8.50
2014,03,31,11,40,8.60
2014,03,31,11,41,8.60
2014,03,31,11,42,8.70
2014,03,31,11,43,8.70
2014,03,31,11,44,8.80
2014,03,31,11,45,8.80
2014,03,31,11,46,8.90
2014,03,31,11,47,8.90
2014,03,31,11,48,9.00
2014,03,31,11,49,9.10
2014,03,31,11,50,9.10
2014,03,31,11,51,9.10
2014,03,31,11,52,9.10
2014,03,31,11,53,9.10
2014,03,31,11,54,9.10
2014,03,31,11,55,9.10
2014,03,31,11,56,9.10
2014,03,31,11,57,9.10
2014,03,31,11,58,9.00
2014,03,31,11,59,8.90
2014,03,31,12,00,8.90
2014,03,31,12,01,8.80
2014,03,31,12,02,8.80
2014,03,31,12,03,8.70
2014,03,31,12,04,8.70
2014,03,31,12,05,8.70
2014,03,31,12,06,8.70
2014,03,31,12,07,8.70
2014,03,31,12,08,8.80
2014,03,31,12,09,8.70
2014,03,31,12,10,8.60
2014,03,31,12,11,8.60
2014,03,31,12,12,8.60
2014,03,31,12,13,8.50
2014,03,31,12,14,8.50
2014,03,31,12,15,8.40
2014,03,31,12,16,8.40
2014,03,31,12,17,8.40
2014,03,31,12,18,8.50
2014,03,31,12,19,8.50
2014,03,31,12,20,8.60
2014,03,31,12,21,8.60
2014,03,31,12,22,8.60
2014,03,31,12,23,8.60
2014,03,31,12,24,8.70
2014,03,31,12,25,8.80
2014,03,31,12,26,8.80
2014,03,31,12,27,8.90
2014,03,31,12,28,8.90
2014,03,31,12,29,9.00
2014,03,31,12,30,9.10
2014,03,31,12,31,9.20
2014,03,31,12,32,9.20
2014,03,31,12,33,9.30
2014,03,31,12,34,9.40
2014,03,31,12,35,9.40
2014,03,31,12,36,9.50
2014,03,31,12,37,9.50
2014,03,31,12,38,9.50
2014,03,31,12,39,9.40
2014,03,31,12,40,9.40
2014,03,31,12,41,9.40
2014,03,31,12,42,9.40
2014,03,31,12,43,9.30
2014,03,31,12,44,9.30
2014,03,31,12,45,9.30
2014,03,31,12,46,9.20
2014,03,31,12,47,9.10
2014,03,31,12,48,9.10
2014,03,31,12,49,9.00
2014,03,31,12,50,9.00
2014,03,31,12,51,8.90
2014,03,31,12,52,8.90
2014,03,31,12,53,8.90
2014,03,31,12,54,8.90
2014,03,31,12,55,8.90
2014,03,31,12,56,8.90
2014,03,31,12,57,8.90
2014,03,31,12,58,8.90
2014,03,31,12,59,8.90
2014,03,31,13,00,8.90
2014,03,31,13,01,8.90
2014,03,31,13,02,9.00
2014,03,31,13,03,9.00
2014,03,31,13,04,9.00
2014,03,31,13,05,9.00
2014,03,31,13,06,9.00
2014,03,31,13,07,8.90
2014,03,31,13,08,8.90
2014,03,31,13,09,8.90
2014,03,31,13,10,9.00
2014,03,31,13,11,9.10
2014,03,31,13,12,9.20
2014,03,31,13,13,9.30
2014,03,31,13,14,9.30
2014,03,31,13,15,9.30
2014,03,31,13,16,9.40
2014,03,31,13,17,9.30
2014,03,31,13,18,9.30
2014,03,31,13,19,9.30
2014,03,31,13,20,9.40
2014,03,31,13,21,9.40
2014,03,31,13,22,9.50
2014,03,31,13,23,9.50
2014,03,31,13,24,9.50
2014,03,31,13,25,9.50
2014,03,31,13,26,9.50
2014,03,31,13,27,9.40
2014,03,31,13,28,9.40
2014,03,31,13,29,9.40
2014,03,31,13,30,9.40
2014,03,31,13,31,9.30
2014,03,31,13,32,9.30
2014,03,31,13,33,9.30
2014,03,31,13,34,9.40
2014,03,31,13,35,9.40
2014,03,31,13,36,9.40
2014,03,31,13,37,9.50
2014,03,31,13,38,9.50
2014,03,31,13,39,9.50
2014,03,31,13,40,9.40
2014,03,31,13,41,9.40
2014,03,31,13,42,9.40
2014,03,31,13,43,9.50
2014,03,31,13,44,9.50
2014,03,31,13,45,9.60
2014,03,31,13,46,9.60
2014,03,31,13,47,9.60
2014,03,31,13,48,9.60
2014,03,31,13,49,9.60
2014,03,31,13,50,9.50
2014,03,31,13,51,9.50
2014,03,31,13,52,9.60
2014,03,31,13,53,9.60
2014,03,31,13,54,9.70
2014,03,31,13,55,9.90
2014,03,31,13,56,9.90
2014,03,31,13,57,10.00
2014,03,31,13,58,10.00
2014,03,31,13,59,10.00
2014,03,31,14,00,10.10
2014,03,31,14,01,10.00
2014,03,31,14,02,10.00
2014,03,31,14,03,10.00
2014,03,31,14,04,10.00
2014,03,31,14,05,10.10
2014,03,31,14,06,10.10
2014,03,31,14,07,10.10
2014,03,31,14,08,10.20
2014,03,31,14,09,10.20
2014,03,31,14,10,10.30
2014,03,31,14,11,10.30
2014,03,31,14,12,10.40
2014,03,31,14,13,10.40
2014,03,31,14,14,10.50
2014,03,31,14,15,10.50
2014,03,31,14,16,10.60
2014,03,31,14,17,10.60
2014,03,31,14,18,10.70
2014,03,31,14,19,10.70
2014,03,31,14,20,10.70
2014,03,31,14,21,10.70
2014,03,31,14,22,10.70
2014,03,31,14,23,10.80
2014,03,31,14,24,10.80
2014,03,31,14,25,10.70
2014,03,31,14,26,10.70
2014,03,31,14,27,10.70
2014,03,31,14,28,10.70
2014,03,31,14,29,10.70
2014,03,31,14,30,10.70
2014,03,31,14,31,10.70
2014,03,31,14,32,10.60
2014,03,31,14,33,10.60
2014,03,31,14,34,10.50
2014,03,31,14,35,10.50
2014,03,31,14,36,10.40
2014,03,31,14,37,10.40
2014,03,31,14,38,10.40
2014,03,31,14,39,10.40
2014,03,31,14,40,10.40
2014,03,31,14,41,10.50
2014,03,31,14,42,10.50
2014,03,31,14,43,10.50
2014,03,31,14,44,10.60
2014,03,31,14,45,10.70
2014,03,31,14,46,10.70
2014,03,31,14,47,10.70
2014,03,31,14,48,10.80
2014,03,31,14,49,10.80
2014,03,31,14,50,10.90
2014,03,31,14,51,10.90
2014,03,31,14,52,10.90
2014,03,31,14,53,11.00
2014,03,31,14,54,11.00
2014,03,31,14,55,11.10
2014,03,31,14,56,11.10
2014,03,31,14,57,11.10
2014,03,31,14,58,11.10
2014,03,31,14,59,11.10
2014,03,31,15,00,11.10
2014,03,31,15,01,11.10
2014,03,31,15,02,11.10
2014,03,31,15,03,11.10
2014,03,31,15,04,11.20
2014,03,31,15,05,11.20
2014,03,31,15,06,11.30
2014,03,31,15,07,11.30
2014,03,31,15,08,11.30
2014,03,31,15,09,11.30
2014,03,31,15,10,11.30
2014,03,31,15,11,11.30
2014,03,31,15,12,11.30
2014,03,31,15,13,11.30
2014,03,31,15,14,11.30
2014,03,31,15,15,11.30
2014,03,31,15,16,11.30
2014,03,31,15,17,11.30
2014,03,31,15,18,11.20
2014,03,31,15,19,11.30
2014,03,31,15,20,11.30
2014,03,31,15,21,11.30
2014,03,31,15,22,11.30
2014,03,31,15,23,11.30
2014,03,31,15,24,11.40
2014,03,31,15,25,11.40
2014,03,31,15,26,11.40
2014,03,31,15,27,11.30
2014,03,31,15,28,11.30
2014,03,31,15,29,11.30
2014,03,31,15,30,11.30
2014,03,31,15,31,11.30
2014,03,31,15,32,11.30
2014,03,31,15,33,11.30
2014,03,31,15,34,11.20
2014,03,31,15,35,11.20
2014,03,31,15,36,11.20
2014,03,31,15,37,11.10
2014,03,31,15,38,11.10
2014,03,31,15,39,11.10
2014,03,31,15,40,11.10
2014,03,31,15,41,11.10
2014,03,31,15,42,11.20
2014,03,31,15,43,11.20
2014,03,31,15,44,11.20
2014,03,31,15,45,11.30
2014,03,31,15,46,11.30
2014,03,31,15,47,11.30
2014,03,31,15,48,11.40
2014,03,31,15,49,11.40
2014,03,31,15,50,11.40
2014,03,31,15,51,11.50
2014,03,31,15,52,11.60
2014,03,31,15,53,11.60
2014,03,31,15,54,11.70
2014,03,31,15,55,11.70
2014,03,31,15,56,11.70
2014,03,31,15,57,11.70
2014,03,31,15,58,11.70
2014,03,31,15,59,11.70
2014,03,31,16,00,11.70
2014,03,31,16,01,11.70
2014,03,31,16,02,11.60
2014,03,31,16,03,11.60
2014,03,31,16,04,11.50
2014,03,31,16,05,11.50
2014,03,31,16,06,11.40
2014,03,31,16,07,11.40
2014,03,31,16,08,11.30
2014,03,31,16,09,11.30
2014,03,31,16,10,11.30
2014,03,31,16,11,11.30
2014,03,31,16,12,11.30
2014,03,31,16,13,11.30
2014,03,31,16,14,11.40
2014,03,31,16,15,11.40
2014,03,31,16,16,11.30
2014,03,31,16,17,11.30
2014,03,31,16,18,11.30
2014,03,31,16,19,11.20
2014,03,31,16,20,11.20
2014,03,31,16,21,11.20
2014,03,31,16,22,11.20
2014,03,31,16,23,11.20
2014,03,31,16,24,11.20
2014,03,31,16,25,11.20
2014,03,31,16,26,11.20
2014,03,31,16,27,11.20
2014,03,31,16,28,11.20
2014,03,31,16,29,11.20
2014,03,31,16,30,11.20
2014,03,31,16,31,11.20
2014,03,31,16,32,11.20
2014,03,31,16,33,11.20
2014,03,31,16,34,11.20
2014,03,31,16,35,11.20
2014,03,31,16,36,11.20
2014,03,31,16,37,11.20
2014,03,31,16,38,11.20
2014,03,31,16,39,11.20
2014,03,31,16,40,11.20
2014,03,31,16,41,11.20
2014,03,31,16,42,11.20
2014,03,31,16,43,11.20
2014,03,31,16,44,11.20
2014,03,31,16,45,11.10
2014,03,31,16,46,11.10
2014,03,31,16,47,11.10
2014,03,31,16,48,11.10
2014,03,31,16,49,11.20
2014,03,31,16,50,11.20
2014,03,31,16,51,11.20
2014,03,31,16,52,11.30
2014,03,31,16,53,11.30
2014,03,31,16,54,11.30
2014,03,31,16,55,11.30
2014,03,31,16,56,11.40
2014,03,31,16,57,11.40
2014,03,31,16,58,11.40
2014,03,31,16,59,11.40
2014,03,31,17,00,11.40
2014,03,31,17,01,11.30
2014,03,31,17,02,11.30
2014,03,31,17,03,11.30
2014,03,31,17,04,11.30
2014,03,31,17,05,11.30
2014,03,31,17,06,11.30
2014,03,31,17,07,11.30
2014,03,31,17,08,11.30
2014,03,31,17,09,11.30
2014,03,31,17,10,11.30
2014,03,31,17,11,11.30
2014,03,31,17,12,11.30
2014,03,31,17,13,11.30
2014,03,31,17,14,11.30
2014,03,31,17,15,11.30
2014,03,31,17,16,11.30
2014,03,31,17,17,11.30
2014,03,31,17,18,11.40
2014,03,31,17,19,11.40
2014,03,31,17,20,11.30
2014,03,31,17,21,11.30
2014,03,31,17,22,11.30
2014,03,31,17,23,11.30
2014,03,31,17,24,11.30
2014,03,31,17,25,11.30
2014,03,31,17,26,11.30
2014,03,31,17,27,11.30
2014,03,31,17,28,11.30
2014,03,31,17,29,11.30
2014,03,31,17,30,11.30
2014,03,31,17,31,11.30
2014,03,31,17,32,11.30
2014,03,31,17,33,11.30
2014,03,31,17,34,11.30
2014,03,31,17,35,11.30
2014,03,31,17,36,11.30
2014,03,31,17,37,11.30
2014,03,31,17,38,11.30
2014,03,31,17,39,11.30
2014,03,31,17,40,11.30
2014,03,31,17,41,11.30
2014,03,31,17,42,11.30
2014,03,31,17,43,11.30
2014,03,31,17,44,11.30
2014,03,31,17,45,11.40
2014,03,31,17,46,11.40
2014,03,31,17,47,11.40
2014,03,31,17,48,11.40
2014,03,31,17,49,11.40
2014,03,31,17,50,11.40
2014,03,31,17,51,11.40
2014,03,31,17,52,11.50
2014,03,31,17,53,11.50
2014,03,31,17,54,11.50
2014,03,31,17,55,11.60